Flag for Germany Weather past 2 weeks in Rostock, Mecklenburg-Western Pomerania, Germany

Now
49 °F

Overcast.


Feels Like: 49 °F
Forecast: 46 / 66 °F
Wind: 2 mph from East

Location: Rostock-Warnemuende


UV Index: 0 (Low)

Visibility: 14 mi


Pressure: 29.88 "Hg

Humidity: 82%

Dew point: 44 °F

Location of RostockLocation

Historic Weather in Rostock

°F

Rostock temperature yesterday

Maximum temperature yesterday: 61 °F (at 11:00 AM)
Minimum temperature yesterday: 48 °F (at 5:00 AM)
Average temperature yesterday: 53 °F

Past Weeks' High & Low Weather Summary

 TemperatureHumidityPressure
High62 °F (Apr 7, 1:00 PM)100% (Apr 6, 5:00 AM)30.46 "Hg (Apr 6, 5:00 AM)
Low38 °F (Apr 16, 7:00 AM)33% (Apr 17, 4:00 PM)29.59 "Hg (Apr 14, 8:00 AM)
Average49 °F81%30.00 "Hg
* Reported Apr 6 3:00 AM — Apr 21 3:00 AM, Rostock, Weather by CustomWeather, © 2014

Note: Actual official high and low records may vary slightly from our data, if they occured in-between our weather recording intervals... More about our weather records

Advertising

Historic Weather Conditions — Data for Previous 24 hours

 ConditionsComfort  
Time TempWeatherWind HumidityBarometerVisibility
3:00 AM
Apr 21
50 °FOvercast.2 mph81%29.89 "Hg15 mi
2:00 AM49 °FOvercast.2 mph82%29.90 "Hg12 mi
1:00 AM50 °FOvercast.2 mph77%29.92 "Hg16 mi
12:00 AM51 °FPassing clouds.3 mph76%29.92 "Hg16 mi
11:00 PM
Apr 20
52 °FPassing clouds.2 mph74%29.92 "Hg16 mi
10:00 PM53 °FOvercast.3 mph70%29.93 "Hg16 mi
9:00 PM56 °FOvercast.3 mph65%29.93 "Hg16 mi
8:00 PM57 °FOvercast.3 mph64%29.91 "Hg19 mi
7:00 PM54 °FPassing clouds.6 mph78%29.91 "Hg11 mi
6:00 PM53 °FPassing clouds.8 mph78%29.92 "Hg11 mi
5:00 PM54 °FPassing clouds.8 mph78%29.94 "Hg10 mi
4:00 PM56 °FPassing clouds.7 mph73%29.95 "Hg9 mi
3:00 PM56 °FPassing clouds.9 mph73%29.96 "Hg9 mi
2:00 PM55 °FPassing clouds.9 mph75%29.96 "Hg9 mi
1:00 PM56 °FPassing clouds.7 mph74%29.98 "Hg10 mi
12:00 PM55 °FPassing clouds.5 mph74%30.00 "Hg11 mi
11:00 AM61 °FPassing clouds.3 mph61%30.00 "Hg11 mi
10:00 AM56 °FPassing clouds.3 mph71%30.01 "Hg11 mi
9:00 AM53 °FSunny.3 mph77%30.02 "Hg10 mi
8:00 AM49 °FSunny.3 mph84%30.02 "Hg9 mi
7:00 AM48 °FSunny.3 mph86%30.03 "Hg8 mi
6:00 AM48 °FSunny.3 mph87%30.02 "Hg8 mi
5:00 AM48 °FClear.3 mph87%30.03 "Hg8 mi
4:00 AM48 °FClear.3 mph86%30.04 "Hg9 mi
Weather by CustomWeather, © 2014

See weather overview